Terminal Aerodrome Forecast
Issued by NWS Paducah, KY

Home | Current Version | Previous Version | Text Only | Print | Product List | Glossary On
Versions: 1 2 3 4 5 6 7 8 9 10 11 12 13 14 15 16 17 18 19 20 21 22 23
000
FTUS43 KPAH 242100 AAA
TAFPAH
TAF AMD
KPAH 242115Z 2421/2518 27010KT P6SM SCT015 BKN025
      TEMPO 2421/2423 -RA BKN015
     FM250900 25005KT P6SM SCT025
     FM251400 21007KT P6SM SCT250=

USA.gov is the U.S. government's official web portal to all federal, state and local government web resources and services.